Regional Weather Roundup
Issued by NWS

Home | Current Version | Previous Version | Graphics & Text | Print | Product List | Glossary On
Versions: 1 2 3 4 5 6 7 8 9 10 11 12 13 14 15 16 17 18 19 20 21 22 23 24 25 26 27 28 29 30 31 32 33 34 35 36 37 38 39 40 41 42 43 44 45 46 47 48 49 50
000
ASUS45 KTFX 011604
RWRMT
MONTANA HOURLY WEATHER ROUNDUP
NATIONAL WEATHER SERVICE GREAT FALLS MT
1004 AM MDT MON SEP 1 2014

NOTE: "FAIR" INDICATES FEW OR NO CLOUDS BELOW 12000 FEET WITH NO
SIGNIFICANT WEATHER AND/OR OBSTRUCTIONS TO VISIBILITY.

* THESE STATIONS ARE NOT UNDER NWS QUALITY CONTROL. THEY DO NOT
   REPORT WEATHER SUCH AS PRECIPITATION OR FOG.

MTZ001>007-043-011700-
WEST OF THE DIVIDE
CITY           SKY/WX    TMP DP  RH WIND       PRES   REMARKS
KALISPELL      CLOUDY    52  50  93 CALM      30.03S
MISSOULA       PTCLDY    52  43  72 CALM      30.09S
BUTTE          PTSUNNY   52  37  57 CALM      30.11S
MULLAN PASS    PTSUNNY   45  37  74 W5        30.10S
* LINCOLN      N/A       52  40  64 S5         N/A
* LOOKOUT PASS N/A       49  40  71 VRB3G9     N/A
* POLSON       N/A       54  45  72 SE2        N/A
* RONAN APT    PTSUNNY   55  46  72 N/A        N/A
* SEELEY LAKE  N/A       49  42  77 NW2        N/A
* THOMP F APT  SUNNY     53  37  55 N5         N/A
$$

MTZ008-052>055-011700-
SOUTHWEST MONTANA
CITY           SKY/WX    TMP DP  RH WIND       PRES   REMARKS
BOZEMAN        PTCLDY    55  41  59 W5        30.07S
DILLON         PTCLDY    54  37  53 VRB6      30.09S
W YELLOWSTONE  PTSUNNY   46  41  83 CALM      30.13S
* THREE FORKS  PTCLDY    57  37  47 N/A        N/A
* BOULDER HILL N/A       51  30  45 S6         N/A
* MONIDA PASS  N/A       48  34  59 NW10       N/A
* RAYNOLDS PAS N/A       46   8  21 NE3        N/A
* WHITEHALL    N/A       58  44  60 S4         N/A
* WISE RIVER   N/A       39  36  89 E3         N/A
$$

MTZ009>010-012-014-046-048-049-054-011700-
EAST SLOPES AND CENTRAL MONTANA
CITY           SKY/WX    TMP DP  RH WIND       PRES   REMARKS
CUT BANK       SUNNY     61  39  44 W24G31    29.94S
GREAT FALLS    PTCLDY    61  39  44 SW10      29.97S
HELENA         PTCLDY    61  36  39 W15G22    30.02F
MALMSTROM AFB  PTCLDY    61  39  44 SW13G22   29.98S
* CONRAD       SUNNY     63  43  48 SW17G24    N/A
* EAST GLACIER N/A       52  39  61 W20G27     N/A
* MONARCH      N/A       51  32  48 NW7G14     N/A
* PENDROY      N/A       55  39  55 NW10G19    N/A
* ROGERS PASS  N/A       50  37  61 SE7G22     N/A
* SAINT MARY   N/A       53  39  59 S8G17      N/A
* SWEET GRASS  N/A       60  36  41 W16G25     N/A
$$

MTZ011-013-016-021-035-040-045-047-050-051-011700-
NORTH CENTRAL MONTANA
CITY           SKY/WX    TMP DP  RH WIND       PRES   REMARKS
HAVRE          SUNNY     63  43  48 SW14      29.91S
LEWISTOWN      PTCLDY    61  39  44 NW12      29.99S
* CHESTER      N/A       59  39  48 NW10G17    N/A
* DENTON       N/A       61  39  44 W9G17      N/A
* GEYSER       N/A       59  39  48 W6G12      N/A
* JUDITH GAP   N/A       58  40  51 NW12       N/A
* LOMA         N/A       61  42  50 SW11       N/A
$$

MTZ017>020-022>027-061-062-011700-
NORTHEAST MONTANA
CITY           SKY/WX    TMP DP  RH WIND       PRES   REMARKS
GLASGOW        PTCLDY    59  50  72 NW6       29.88R
GLENDIVE       PTSUNNY   64  48  56 NW7       29.91R
JORDAN         PTCLDY    61  46  58 W9        29.90S
SIDNEY         PTCLDY    63  50  63 W7        29.88S
WOLF POINT     PTCLDY    61  50  67 SW6       29.87S
* BEAVER HILL  N/A       62  47  58 W10        N/A
* CIRCLE       N/A       55  52  90 N/A        N/A
* LINDSAY DVD  N/A       60  46  60 W8         N/A
* NAVAJO       N/A       62  46  56 NW11G16    N/A
$$

MTZ028>042-056>058-011700-
SOUTHCENTRAL AND SOUTHEAST MONTANA
CITY           SKY/WX    TMP DP  RH WIND       PRES   REMARKS
BAKER          PTCLDY    63  48  58 W8        29.91S
BILLINGS       PTCLDY    57  46  67 SW12      29.99S
LIVINGSTON     PTCLDY    59  43  56 W13       30.04S
MILES CITY     PTSUNNY   64  45  50 W12       29.92S
* LAUREL APT   PTSUNNY   55  46  72 N/A        N/A
* ROUNDUP APT  SUNNY     57  43  60 S6         N/A
* ALZADA       N/A       64  45  50 SW10       N/A
* HYSHAM       N/A       59  42  53 W4G9       N/A
* LAME DEER    N/A       53  45  74 SW9G14     N/A
* REED POINT   N/A       62  37  40 W16G21     N/A
* ROSCOE HILL  N/A       56  33  42 NW4G9      N/A
$$

REGIONAL REPORTS...DAKOTAS
CITY           SKY/WX    TMP DP  RH WIND       PRES   REMARKS
WILLISTON      SUNNY     64  48  56 W9        29.85S
DICKINSON      PTCLDY    63  48  58 NW13      29.86R
BEACH          N/A       63  48  58 NW8       29.89S
CROSBY         SUNNY     64  50  61 W7        29.83R
TIOGA          SUNNY     59  55  87 NW10      29.86S
WATFORD CITY   SUNNY     61  50  67 W9        29.84S
BISMARCK       SUNNY     68  55  63 NW10      29.81R
GRAND FORKS    SUNNY     68  55  63 CALM      29.70S
FARGO          SUNNY     68  57  68 NW6       29.72S
BUFFALO SD     PTCLDY    64  48  56 NW13      29.84R
RAPID CITY     PTCLDY    68  46  45 NW6       29.94R
$$

REGIONAL REPORTS...WYOMING/IDAHO/WASHINGTON
CITY           SKY/WX    TMP DP  RH WIND       PRES   REMARKS
GILLETTE       CLOUDY    59  46  62 NW6       30.00S
SHERIDAN       CLOUDY    55  43  64 NW5       30.03R
CODY           PTCLDY   N/A N/A N/A N/A        N/A
YELLOWSTONE LA SUNNY     45  36  71 CALM      30.18R
SALMON         PTSUNNY   57  39  51 NW3       30.09S
MULLAN PASS    PTSUNNY   45  37  74 W5        30.10S
SAND POINT     SUNNY     59  45  60 S5        30.05R
SPOKANE        SUNNY     55  41  59 S7        30.05R

$$



USA.gov is the U.S. government's official web portal to all federal, state and local government web resources and services.